Time,TemperatureF,DewpointF,PressureIn,WindDirection,WindDirectionDegrees,WindSpeedMPH,WindSpeedGustMPH,Humidity,HourlyPrecipIn,Conditions,Clouds,dailyrainin,SoftwareType,DateUTC
2013-03-03 00:02:00,19.0,16.0,29.73,NW,312,2.0,11.0,87,0.00,,,0.00,,2013-03-03 05:02:00,
2013-03-03 00:12:00,19.0,16.0,29.73,NW,312,2.0,11.0,87,0.00,,,0.00,,2013-03-03 05:12:00,
2013-03-03 00:22:00,19.0,16.0,29.73,West,265,7.0,15.0,87,0.00,,,0.00,,2013-03-03 05:22:00,
2013-03-03 00:32:00,19.0,16.0,29.73,NW,317,4.0,8.0,88,0.00,,,0.00,,2013-03-03 05:32:00,
2013-03-03 00:42:00,19.0,16.0,29.73,NW,317,4.0,8.0,88,0.00,,,0.00,,2013-03-03 05:42:00,
2013-03-03 00:52:00,19.0,16.0,29.73,WNW,284,3.0,15.0,89,0.00,,,0.00,,2013-03-03 05:52:00,
2013-03-03 01:02:00,19.0,16.0,29.72,West,263,6.0,12.0,89,0.00,,,0.00,,2013-03-03 06:02:00,
2013-03-03 01:11:00,19.0,16.0,29.72,West,263,6.0,12.0,89,0.00,,,0.00,,2013-03-03 06:11:00,
2013-03-03 01:21:00,18.0,15.0,29.72,NNW,327,5.0,11.0,88,0.00,,,0.00,,2013-03-03 06:21:00,
2013-03-03 01:32:00,18.0,15.0,29.72,WNW,292,4.0,11.0,88,0.00,,,0.00,,2013-03-03 06:32:00,
2013-03-03 01:42:00,18.0,15.0,29.72,WNW,292,4.0,11.0,88,0.00,,,0.00,,2013-03-03 06:42:00,
2013-03-03 01:52:00,18.0,15.0,29.72,West,279,1.0,11.0,88,0.00,,,0.00,,2013-03-03 06:52:00,
2013-03-03 02:01:00,18.0,15.0,29.73,West,276,8.0,11.0,88,0.00,,,0.00,,2013-03-03 07:01:00,
2013-03-03 02:11:00,18.0,15.0,29.73,West,276,8.0,11.0,88,0.00,,,0.00,,2013-03-03 07:11:00,
2013-03-03 02:21:00,18.0,15.0,29.73,WNW,296,6.0,13.0,88,0.00,,,0.00,,2013-03-03 07:21:00,
2013-03-03 02:32:00,18.0,15.0,29.72,NW,316,2.0,13.0,88,0.00,,,0.00,,2013-03-03 07:32:00,
2013-03-03 02:42:00,18.0,15.0,29.72,NW,316,2.0,13.0,88,0.00,,,0.00,,2013-03-03 07:42:00,
2013-03-03 02:52:00,18.0,15.0,29.72,NW,309,3.0,15.0,88,0.00,,,0.00,,2013-03-03 07:52:00,
2013-03-03 03:01:00,18.0,15.0,29.71,NW,316,5.0,17.0,88,0.00,,,0.00,,2013-03-03 08:01:00,
2013-03-03 03:11:00,18.0,15.0,29.71,NW,316,5.0,17.0,88,0.00,,,0.00,,2013-03-03 08:11:00,
2013-03-03 03:21:00,17.0,14.0,29.70,West,267,4.0,11.0,87,0.00,,,0.00,,2013-03-03 08:21:00,
2013-03-03 03:31:00,17.0,14.0,29.71,WNW,286,4.0,10.0,87,0.00,,,0.00,,2013-03-03 08:31:00,
2013-03-03 03:42:00,17.0,14.0,29.71,WNW,286,4.0,10.0,87,0.00,,,0.00,,2013-03-03 08:42:00,
2013-03-03 03:54:00,17.0,14.0,29.70,NW,314,5.0,12.0,87,0.00,,,0.00,,2013-03-03 08:54:00,
2013-03-03 04:01:00,17.0,13.0,29.70,WSW,249,5.0,12.0,84,0.00,,,0.00,,2013-03-03 09:01:00,
2013-03-03 04:12:00,17.0,13.0,29.70,WSW,249,5.0,12.0,84,0.00,,,0.00,,2013-03-03 09:12:00,
2013-03-03 04:21:00,17.0,13.0,29.70,NW,309,2.0,11.0,84,0.00,,,0.00,,2013-03-03 09:21:00,
2013-03-03 04:32:00,16.0,12.0,29.70,WNW,285,3.0,13.0,85,0.00,,,0.00,,2013-03-03 09:32:00,
2013-03-03 04:42:00,16.0,12.0,29.70,WNW,285,3.0,13.0,85,0.00,,,0.00,,2013-03-03 09:42:00,
2013-03-03 04:52:00,16.0,12.0,29.70,WNW,282,4.0,18.0,85,0.00,,,0.00,,2013-03-03 09:52:00,
2013-03-03 05:01:00,16.0,12.0,29.70,NW,307,2.0,14.0,85,0.00,,,0.00,,2013-03-03 10:01:00,
2013-03-03 05:11:00,16.0,12.0,29.70,NW,307,2.0,14.0,85,0.00,,,0.00,,2013-03-03 10:11:00,
2013-03-03 05:21:00,16.0,13.0,29.70,WNW,294,8.0,14.0,86,0.00,,,0.00,,2013-03-03 10:21:00,
2013-03-03 05:32:00,16.0,13.0,29.70,North,355,6.0,11.0,86,0.00,,,0.00,,2013-03-03 10:32:00,
2013-03-03 05:42:00,16.0,13.0,29.70,North,355,6.0,11.0,86,0.00,,,0.00,,2013-03-03 10:42:00,
2013-03-03 05:52:00,16.0,13.0,29.70,NNW,331,6.0,14.0,86,0.00,,,0.00,,2013-03-03 10:52:00,
2013-03-03 06:01:00,16.0,13.0,29.71,West,279,5.0,12.0,86,0.00,,,0.00,,2013-03-03 11:01:00,
2013-03-03 06:11:00,16.0,13.0,29.71,West,279,5.0,12.0,86,0.00,,,0.00,,2013-03-03 11:11:00,
2013-03-03 06:22:00,15.0,11.0,29.71,NW,324,4.0,12.0,84,0.00,,,0.00,,2013-03-03 11:22:00,
2013-03-03 06:32:00,15.0,11.0,29.71,NNW,340,6.0,14.0,82,0.00,,,0.00,,2013-03-03 11:32:00,
2013-03-03 06:42:00,15.0,11.0,29.71,NNW,340,6.0,14.0,82,0.00,,,0.00,,2013-03-03 11:42:00,
2013-03-03 06:53:00,15.0,11.0,29.72,WNW,300,5.0,13.0,82,0.00,,,0.00,,2013-03-03 11:53:00,
2013-03-03 07:02:00,15.0,11.0,29.72,NNW,344,4.0,15.0,82,0.00,,,0.00,,2013-03-03 12:02:00,
2013-03-03 07:11:00,15.0,11.0,29.72,NNW,344,4.0,15.0,82,0.00,,,0.00,,2013-03-03 12:11:00,
2013-03-03 07:21:00,15.0,11.0,29.71,WNW,296,3.0,11.0,82,0.00,,,0.00,,2013-03-03 12:21:00,
2013-03-03 07:32:00,16.0,11.0,29.72,NW,323,6.0,14.0,82,0.00,,,0.00,,2013-03-03 12:32:00,
2013-03-03 07:43:00,16.0,11.0,29.72,NW,323,6.0,14.0,82,0.00,,,0.00,,2013-03-03 12:43:00,
2013-03-03 07:53:00,16.0,11.0,29.72,NW,306,4.0,15.0,81,0.00,,,0.00,,2013-03-03 12:53:00,
2013-03-03 08:01:00,17.0,12.0,29.72,WNW,302,7.0,14.0,80,0.00,,,0.00,,2013-03-03 13:01:00,
2013-03-03 08:11:00,17.0,12.0,29.72,WNW,302,7.0,14.0,80,0.00,,,0.00,,2013-03-03 13:11:00,
2013-03-03 08:22:00,18.0,13.0,29.72,West,262,5.0,12.0,80,0.00,,,0.00,,2013-03-03 13:22:00,
2013-03-03 08:32:00,18.0,13.0,29.73,NW,325,5.0,14.0,80,0.00,,,0.00,,2013-03-03 13:32:00,
2013-03-03 08:42:00,18.0,13.0,29.73,NW,325,5.0,14.0,80,0.00,,,0.00,,2013-03-03 13:42:00,
2013-03-03 08:52:00,19.0,14.0,29.73,NNW,339,5.0,11.0,80,0.00,,,0.00,,2013-03-03 13:52:00,
2013-03-03 09:02:00,20.0,14.0,29.74,WNW,296,4.0,15.0,77,0.00,,,0.00,,2013-03-03 14:02:00,
2013-03-03 09:11:00,20.0,14.0,29.74,WNW,296,4.0,15.0,77,0.00,,,0.00,,2013-03-03 14:11:00,
2013-03-03 09:22:00,21.0,15.0,29.74,NNW,344,4.0,10.0,77,0.00,,,0.00,,2013-03-03 14:22:00,
2013-03-03 09:32:00,22.0,16.0,29.75,North,355,1.0,7.0,78,0.00,,,0.00,,2013-03-03 14:32:00,
2013-03-03 09:42:00,22.0,16.0,29.75,North,355,1.0,7.0,78,0.00,,,0.00,,2013-03-03 14:42:00,
2013-03-03 09:52:00,23.0,17.0,29.75,NW,305,4.0,8.0,76,0.00,,,0.00,,2013-03-03 14:52:00,
2013-03-03 10:02:00,24.0,17.0,29.75,NW,313,4.0,9.0,73,0.00,,,0.00,,2013-03-03 15:02:00,
2013-03-03 10:11:00,24.0,17.0,29.75,NW,313,4.0,9.0,73,0.00,,,0.00,,2013-03-03 15:11:00,
2013-03-03 10:22:00,26.0,19.0,29.75,NW,313,3.0,7.0,73,0.00,,,0.00,,2013-03-03 15:22:00,
2013-03-03 10:32:00,27.0,18.0,29.75,NNW,335,2.0,6.0,69,0.00,,,0.00,,2013-03-03 15:32:00,
2013-03-03 10:42:00,27.0,18.0,29.75,NNW,335,2.0,6.0,69,0.00,,,0.00,,2013-03-03 15:42:00,
2013-03-03 10:52:00,28.0,19.0,29.75,NW,319,3.0,7.0,68,0.00,,,0.00,,2013-03-03 15:52:00,
2013-03-03 11:02:00,29.0,19.0,29.75,NW,321,2.0,6.0,66,0.00,,,0.00,,2013-03-03 16:02:00,
2013-03-03 11:12:00,29.0,19.0,29.75,NW,321,2.0,6.0,66,0.00,,,0.00,,2013-03-03 16:12:00,
2013-03-03 11:22:00,29.0,19.0,29.75,NNW,338,0.0,8.0,66,0.00,,,0.00,,2013-03-03 16:22:00,
2013-03-03 11:32:00,30.0,18.0,29.75,NNW,344,2.0,9.0,61,0.00,,,0.00,,2013-03-03 16:32:00,
2013-03-03 11:42:00,30.0,18.0,29.75,NNW,344,2.0,9.0,61,0.00,,,0.00,,2013-03-03 16:42:00,
2013-03-03 11:52:00,32.0,20.0,29.75,West,281,1.0,6.0,61,0.00,,,0.00,,2013-03-03 16:52:00,
2013-03-03 12:01:00,32.0,20.0,29.75,West,272,0.0,5.0,60,0.00,,,0.00,,2013-03-03 17:01:00,
2013-03-03 12:11:00,31.0,18.0,29.75,WNW,282,4.0,7.0,59,0.00,,,0.00,,2013-03-03 17:11:00,
2013-03-03 12:22:00,31.0,18.0,29.75,WNW,282,4.0,7.0,59,0.00,,,0.00,,2013-03-03 17:22:00,
2013-03-03 12:32:00,32.0,20.0,29.75,West,279,3.0,7.0,61,0.00,,,0.00,,2013-03-03 17:32:00,
2013-03-03 12:42:00,32.0,20.0,29.75,West,279,3.0,7.0,61,0.00,,,0.00,,2013-03-03 17:42:00,
2013-03-03 12:52:00,33.0,20.0,29.75,West,262,4.0,9.0,59,0.00,,,0.00,,2013-03-03 17:52:00,
2013-03-03 13:02:00,32.0,19.0,29.75,West,281,3.0,8.0,58,0.00,,,0.00,,2013-03-03 18:02:00,
2013-03-03 13:11:00,32.0,19.0,29.75,West,281,3.0,8.0,58,0.00,,,0.00,,2013-03-03 18:11:00,
2013-03-03 13:21:00,32.0,19.0,29.75,WSW,247,4.0,10.0,57,0.00,,,0.00,,2013-03-03 18:21:00,
2013-03-03 13:32:00,31.0,18.0,29.74,West,274,3.0,10.0,58,0.00,,,0.00,,2013-03-03 18:32:00,
2013-03-03 13:42:00,31.0,18.0,29.74,West,274,3.0,10.0,58,0.00,,,0.00,,2013-03-03 18:42:00,
2013-03-03 13:52:00,33.0,20.0,29.74,WNW,285,5.0,11.0,58,0.00,,,0.00,,2013-03-03 18:52:00,
2013-03-03 14:02:00,33.0,19.0,29.75,NNW,327,1.0,8.0,55,0.00,,,0.00,,2013-03-03 19:02:00,
2013-03-03 14:11:00,33.0,19.0,29.75,NNW,327,1.0,8.0,55,0.00,,,0.00,,2013-03-03 19:11:00,
2013-03-03 14:22:00,34.0,19.0,29.75,WNW,286,3.0,11.0,54,0.00,,,0.00,,2013-03-03 19:22:00,
2013-03-03 14:32:00,33.0,18.0,29.75,WNW,286,3.0,9.0,54,0.00,,,0.00,,2013-03-03 19:32:00,
2013-03-03 14:42:00,33.0,18.0,29.75,WNW,286,3.0,9.0,54,0.00,,,0.00,,2013-03-03 19:42:00,
2013-03-03 14:52:00,33.0,17.0,29.74,West,265,1.0,8.0,52,0.00,,,0.00,,2013-03-03 19:52:00,
2013-03-03 15:01:00,33.0,17.0,29.75,West,271,4.0,10.0,52,0.00,,,0.00,,2013-03-03 20:01:00,
2013-03-03 15:11:00,33.0,17.0,29.75,West,271,4.0,10.0,52,0.00,,,0.00,,2013-03-03 20:11:00,
2013-03-03 15:22:00,33.0,18.0,29.75,WNW,302,3.0,10.0,53,0.00,,,0.00,,2013-03-03 20:22:00,
2013-03-03 15:32:00,34.0,17.0,29.75,SW,215,6.0,11.0,50,0.00,,,0.00,,2013-03-03 20:32:00,
2013-03-03 15:42:00,34.0,17.0,29.75,SW,215,6.0,11.0,50,0.00,,,0.00,,2013-03-03 20:42:00,
2013-03-03 15:53:00,33.0,18.0,29.75,WNW,292,6.0,11.0,53,0.00,,,0.00,,2013-03-03 20:53:00,
2013-03-03 16:02:00,31.0,16.0,29.75,NW,311,7.0,16.0,53,0.00,,,0.00,,2013-03-03 21:02:00,
2013-03-03 16:12:00,31.0,16.0,29.75,NW,311,7.0,16.0,53,0.00,,,0.00,,2013-03-03 21:12:00,
2013-03-03 16:22:00,29.0,15.0,29.76,West,271,6.0,14.0,56,0.00,,,0.00,,2013-03-03 21:22:00,
2013-03-03 16:32:00,28.0,16.0,29.76,West,275,7.0,14.0,59,0.00,,,0.00,,2013-03-03 21:32:00,
2013-03-03 16:42:00,28.0,16.0,29.76,West,275,7.0,14.0,59,0.00,,,0.00,,2013-03-03 21:42:00,
2013-03-03 16:52:00,28.0,15.0,29.76,NW,310,7.0,14.0,58,0.00,,,0.00,,2013-03-03 21:52:00,
2013-03-03 17:02:00,27.0,15.0,29.76,NW,326,9.0,13.0,59,0.00,,,0.00,,2013-03-03 22:02:00,
2013-03-03 17:11:00,27.0,15.0,29.76,NW,326,9.0,13.0,59,0.00,,,0.00,,2013-03-03 22:11:00,
2013-03-03 17:22:00,27.0,16.0,29.76,NNW,333,5.0,11.0,62,0.00,,,0.00,,2013-03-03 22:22:00,
2013-03-03 17:32:00,25.0,14.0,29.76,SW,236,4.0,15.0,62,0.00,,,0.00,,2013-03-03 22:32:00,
2013-03-03 17:42:00,25.0,14.0,29.76,SW,236,4.0,15.0,62,0.00,,,0.00,,2013-03-03 22:42:00,
2013-03-03 17:52:00,23.0,13.0,29.77,NNW,339,1.0,8.0,66,0.00,,,0.00,,2013-03-03 22:52:00,
2013-03-03 18:01:00,22.0,14.0,29.77,WNW,298,3.0,13.0,70,0.00,,,0.00,,2013-03-03 23:01:00,
2013-03-03 18:11:00,22.0,14.0,29.77,WNW,298,3.0,13.0,70,0.00,,,0.00,,2013-03-03 23:11:00,
2013-03-03 18:21:00,21.0,13.0,29.78,NW,326,1.0,18.0,72,0.00,,,0.00,,2013-03-03 23:21:00,
2013-03-03 18:32:00,20.0,13.0,29.78,West,278,5.0,15.0,75,0.00,,,0.00,,2013-03-03 23:32:00,
2013-03-03 18:42:00,20.0,13.0,29.78,West,278,5.0,15.0,75,0.00,,,0.00,,2013-03-03 23:42:00,
2013-03-03 18:52:00,20.0,14.0,29.78,NW,306,5.0,13.0,76,0.00,,,0.00,,2013-03-03 23:52:00,
2013-03-03 19:02:00,20.0,14.0,29.78,WNW,294,3.0,16.0,77,0.00,,,0.00,,2013-03-04 00:02:00,
2013-03-03 19:11:00,20.0,14.0,29.78,WNW,294,3.0,16.0,77,0.00,,,0.00,,2013-03-04 00:11:00,
2013-03-03 19:22:00,20.0,15.0,29.78,West,261,7.0,19.0,79,0.00,,,0.00,,2013-03-04 00:22:00,
2013-03-03 19:32:00,19.0,13.0,29.77,NW,324,2.0,19.0,77,0.00,,,0.00,,2013-03-04 00:32:00,
2013-03-03 19:42:00,19.0,13.0,29.77,NW,324,2.0,19.0,77,0.00,,,0.00,,2013-03-04 00:42:00,
2013-03-03 19:52:00,19.0,14.0,29.78,NW,311,5.0,13.0,79,0.00,,,0.00,,2013-03-04 00:52:00,
2013-03-03 20:01:00,19.0,14.0,29.77,WSW,245,6.0,13.0,79,0.00,,,0.00,,2013-03-04 01:01:00,
2013-03-03 20:12:00,19.0,14.0,29.77,WSW,245,6.0,13.0,79,0.00,,,0.00,,2013-03-04 01:12:00,
2013-03-03 20:22:00,18.0,13.0,29.77,NNW,342,4.0,16.0,80,0.00,,,0.00,,2013-03-04 01:22:00,
2013-03-03 20:32:00,18.0,13.0,29.76,East,93,5.0,14.0,79,0.00,,,0.00,,2013-03-04 01:32:00,
2013-03-03 20:42:00,18.0,13.0,29.76,East,93,5.0,14.0,79,0.00,,,0.00,,2013-03-04 01:42:00,
2013-03-03 20:52:00,18.0,13.0,29.76,WNW,295,5.0,16.0,79,0.00,,,0.00,,2013-03-04 01:52:00,
2013-03-03 21:01:00,18.0,13.0,29.76,NW,304,4.0,12.0,80,0.00,,,0.00,,2013-03-04 02:01:00,
2013-03-03 21:11:00,18.0,13.0,29.76,NW,304,4.0,12.0,80,0.00,,,0.00,,2013-03-04 02:11:00,
2013-03-03 21:22:00,18.0,13.0,29.76,ENE,59,5.0,12.0,80,0.00,,,0.00,,2013-03-04 02:22:00,
2013-03-03 21:32:00,18.0,13.0,29.75,WNW,287,6.0,13.0,79,0.00,,,0.00,,2013-03-04 02:32:00,
2013-03-03 21:42:00,18.0,13.0,29.75,WNW,287,6.0,13.0,79,0.00,,,0.00,,2013-03-04 02:42:00,
2013-03-03 21:53:00,18.0,12.0,29.76,West,267,6.0,19.0,78,0.00,,,0.00,,2013-03-04 02:53:00,
2013-03-03 22:02:00,17.0,11.0,29.75,North,10,9.0,17.0,77,0.00,,,0.00,,2013-03-04 03:02:00,
2013-03-03 22:11:00,17.0,11.0,29.75,North,10,9.0,17.0,77,0.00,,,0.00,,2013-03-04 03:11:00,
2013-03-03 22:22:00,17.0,11.0,29.74,NNW,336,9.0,19.0,77,0.00,,,0.00,,2013-03-04 03:22:00,
2013-03-03 22:32:00,17.0,11.0,29.75,North,360,8.0,18.0,77,0.00,,,0.00,,2013-03-04 03:32:00,
2013-03-03 22:42:00,17.0,11.0,29.75,NNW,335,9.0,19.0,77,0.00,,,0.00,,2013-03-04 03:42:00,
2013-03-03 22:53:00,17.0,11.0,29.75,NNW,335,9.0,19.0,77,0.00,,,0.00,,2013-03-04 03:53:00,
2013-03-03 23:01:00,17.0,11.0,29.74,NW,307,11.0,18.0,77,0.00,,,0.00,,2013-03-04 04:01:00,
2013-03-03 23:11:00,17.0,11.0,29.74,NW,307,11.0,18.0,77,0.00,,,0.00,,2013-03-04 04:11:00,
2013-03-03 23:22:00,17.0,11.0,29.74,NNW,333,10.0,19.0,77,0.00,,,0.00,,2013-03-04 04:22:00,
2013-03-03 23:32:00,17.0,11.0,29.74,NNW,345,11.0,21.0,78,0.00,,,0.00,,2013-03-04 04:32:00,
2013-03-03 23:42:00,17.0,11.0,29.74,NNW,345,11.0,21.0,78,0.00,,,0.00,,2013-03-04 04:42:00,
2013-03-03 23:52:00,17.0,11.0,29.75,NNW,341,11.0,19.0,78,0.00,,,0.00,,2013-03-04 04:52:00,